Regional Weather Roundup
Issued by NWS

Home | Current Version | Previous Version | Graphics & Text | Print | Product List | Glossary On
Versions: 1 2 3 4 5 6 7 8 9 10 11 12 13 14 15 16 17 18 19 20 21 22 23 24 25 26 27 28 29 30 31 32 33 34 35 36 37 38 39 40 41 42 43 44 45 46 47 48 49 50
000
ASUS43 KFSD 202210
RWRSD

WEATHER ROUNDUP FOR SOUTH DAKOTA
NATIONAL WEATHER SERVICE SIOUX FALLS SD
400 PM CST THU NOV 20 2014

NOTE: "FAIR" INDICATES FEW OR NO CLOUDS BELOW 12,000 FEET WITH NO
SIGNIFICANT WEATHER AND/OR OBSTRUCTIONS TO VISIBILITY.


SDZ001>005-009-010-012>017-202300-
NORTHWEST AND NORTH CENTRAL SOUTH DAKOTA

CITY           SKY/WX    TMP DP  RH WIND       PRES   REMARKS
BUFFALO          N/A     32  24  72 S9        29.82F WCI  24
FAITH            N/A     25  17  72 S17       29.95F WCI  12
MOBRIDGE       PTCLDY    24  15  68 S8        30.03S WCI  15
$$

SDZ012>016-024>037-041>051-057-063-072>074-202300-
SOUTHWEST AND SOUTH CENTRAL SOUTH DAKOTA

CITY           SKY/WX    TMP DP  RH WIND       PRES   REMARKS
RAPID CTY ARPT SUNNY     26  20  77 SE7       29.91F WCI  18
PIERRE         CLOUDY    22  17  81 SE12      30.06F WCI  10
CUSTER         SUNNY     42  17  36 W10G18    29.88S
ELLSWORTH AFB  MOSUNNY   30  23  74 S6        29.89F WCI  24
PHILIP         SUNNY     27  20  75 SE12      30.00F WCI  17
PINE RIDGE     SUNNY     41  25  53 NE6       29.93S
SPEARFISH      FAIR      37  27  65 CALM      29.88S
WINNER         FAIR      27  19  72 SE13      30.06F WCI  16
$$

SDZ004>011-016>023-039-040-202300-
NORTHEAST SOUTH DAKOTA

CITY           SKY/WX    TMP DP  RH WIND       PRES   REMARKS
ABERDEEN       CLEAR     16   9  74 SE9       30.14S WCI   4
WATERTOWN      CLEAR     13   6  74 SW7       30.12S WCI   3
SISSETON         N/A     16   7  67 SE3       30.15R
$$

SDZ017-020-022-023-036>040-048>070-202300-
SOUTHEAST SOUTH DAKOTA

CITY           SKY/WX    TMP DP  RH WIND       PRES   REMARKS
SIOUX FALLS    CLEAR     20  10  65 NW8       30.17F WCI  10
HURON          CLEAR     18   9  68 SE7       30.16S WCI   9
CHAMBERLAIN    CLOUDY    22  16  76 E7        30.10F WCI  14
MITCHELL       PTCLDY    23  11  60 CALM      30.17F
YANKTON        CLOUDY    21  12  68 CALM      30.20R
$$

ABBREVIATIONS USED IN REMARKS
   TC - TEMPERATURE IN CELSIUS
  WCI - WIND CHILL INDEX
   HX - HEAT INDEX
  VSB - VISIBILITY



USA.gov is the U.S. government's official web portal to all federal, state and local government web resources and services.